Weather History for Punta Gorda, FL

Change the Weather History Date:

Thursday, April 18, 2013

  Actual Average Record
Temperature  
Mean Temperature 80 °F -  
Max Temperature 91 °F 82 °F 91 °F (2013)
Min Temperature 69 °F 58 °F 48 °F (2001)
Cooling Degree Days 14    
Growing Degree Days 30 (Base 50)    
Moisture  
Dew Point 68 °F    
Average Humidity 74    
Maximum Humidity 93    
Minimum Humidity 40    
Precipitation  
Precipitation 0.09 in - - ()
Sea Level Pressure  
Sea Level Pressure 30.02 in    
Wind  
Wind Speed 6 mph (SE)    
Max Wind Speed 16 mph    
Max Gust Speed 21 mph    
Visibility 10 miles    
Events Rain    
Averages and records for this station are not official NWS values.
T = Trace of Precipitation, MM = Missing Value Source: NWS Daily Summary

Daily Weather History Graph

Daily Weather History Graph

Search for Another Location

Airport:

Trip Planner

Search our weather history database for the weather conditions in past years. The results will help you decide how hot, cold, wet, or windy it might be!

Date:

Astronomy

Apr. 18, 2013 Rise Set
Actual Time 7:00 AM EDT 7:53 PM EDT
Civil Twilight 6:36 AM EDT 8:17 PM EDT
Nautical Twilight 6:08 AM EDT 8:46 PM EDT
Astronomical Twilight 5:40 AM EDT 9:15 PM EDT
Moon 1:17 PM EDT (4/18) 2:00 AM EDT (4/18)
Length of Visible Light 13h 40m
Length of Day
12h 53m
First Quarter, 51% of the Moon is Illuminated
Apr 18
First Quarter
Apr 25
Full
May 2
Last Quarter
May 9
New
May 18
First Quarter

Hourly Weather History & Observations

Time (EDT) Temp. Heat Index Dew Point Humidity Pressure Visibility Wind Dir Wind Speed Gust Speed Precip Events Conditions
12:53 AM 71.1 °F - 64.0 °F 78% 30.08 in 10.0 mi East 5.8 mph - N/A   Clear
1:53 AM 70.0 °F - 64.9 °F 84% 30.05 in 10.0 mi East 5.8 mph - N/A   Mostly Cloudy
2:53 AM 70.0 °F - 64.9 °F 84% 30.04 in 10.0 mi ENE 3.5 mph - N/A   Overcast
3:53 AM 69.1 °F - 64.9 °F 87% 30.03 in 10.0 mi NE 3.5 mph - N/A   Overcast
4:53 AM 69.1 °F - 66.0 °F 90% 30.02 in 10.0 mi East 4.6 mph - N/A   Overcast
5:53 AM 69.1 °F - 66.0 °F 90% 30.04 in 10.0 mi NE 4.6 mph - N/A   Overcast
6:53 AM 70.0 °F - 66.0 °F 87% 30.05 in 10.0 mi ENE 3.5 mph - N/A   Overcast
7:53 AM 71.1 °F - 66.0 °F 84% 30.06 in 10.0 mi SE 3.5 mph - N/A   Overcast
8:53 AM 77.0 °F - 66.9 °F 71% 30.06 in 10.0 mi SE 9.2 mph - N/A   Mostly Cloudy
9:53 AM 81.0 °F 83.8 °F 68.0 °F 65% 30.06 in 10.0 mi SE 12.7 mph - N/A   Partly Cloudy
10:53 AM 84.0 °F 87.8 °F 69.1 °F 61% 30.06 in 10.0 mi South 15.0 mph 20.7 mph N/A   Scattered Clouds
11:53 AM 88.0 °F 90.7 °F 66.9 °F 49% 30.04 in 10.0 mi SE 13.8 mph - N/A   Mostly Cloudy
12:53 PM 88.0 °F 89.6 °F 64.9 °F 46% 30.03 in 10.0 mi SE 10.4 mph 19.6 mph N/A   Scattered Clouds
1:53 PM 89.1 °F 90.3 °F 64.0 °F 43% 30.01 in 10.0 mi South 6.9 mph - N/A   Partly Cloudy
2:53 PM 90.0 °F 90.6 °F 63.0 °F 40% 30.00 in 10.0 mi Variable 3.5 mph - N/A   Partly Cloudy
3:53 PM 89.1 °F 92.9 °F 68.0 °F 50% 29.98 in 10.0 mi WSW 12.7 mph - N/A   Scattered Clouds
4:53 PM 88.0 °F 92.1 °F 69.1 °F 53% 29.97 in 10.0 mi WSW 13.8 mph - N/A   Mostly Cloudy
5:53 PM 82.9 °F 87.5 °F 71.1 °F 67% 29.97 in 10.0 mi West 16.1 mph - N/A   Scattered Clouds
6:53 PM 79.0 °F - 71.1 °F 77% 29.98 in 10.0 mi West 5.8 mph - 0.00 in   Overcast
7:41 PM 77.0 °F - 71.6 °F 83% 29.98 in 2.5 mi South 4.6 mph - 0.06 in Rain Rain
7:48 PM 78.8 °F - 71.6 °F 78% 29.98 in 8.0 mi South 4.6 mph - 0.06 in Rain Light Rain
7:53 PM 77.0 °F - 72.0 °F 84% 29.98 in 10.0 mi South 3.5 mph - 0.06 in   Overcast
8:53 PM 75.0 °F - 72.0 °F 90% 30.00 in 7.0 mi SSW 5.8 mph - 0.03 in Rain Light Rain
9:53 PM 75.0 °F - 72.0 °F 90% 30.02 in 10.0 mi Calm Calm - 0.00 in   Overcast
10:53 PM 73.9 °F - 72.0 °F 93% 30.03 in 10.0 mi Calm Calm - N/A   Scattered Clouds
11:53 PM 73.9 °F - 71.1 °F 91% 30.04 in 10.0 mi ESE 5.8 mph - N/A   Partly Cloudy